When you browse on this site, cookies collect data to enhance your experience and personalize the content and advertising you see.
Visit our Privacy Policy to learn more. By continuing to use the site, you agree to this use of cookies and data.
  • In Hungary
  • List of Countries
  • For 7 days
  • Water Temperature
  • Satellite Maps
  • Weather Map
  • News
  • Weather Widgets
  • user-avatar
    Login

    Hourly Weather Jawory

    Today, 24 January, Thursday

    Time Temperature Precipitation Wind Pressure Humidity
    00:00 -8°C° 0 mm 3 mps 752 mmHg 78%
    01:00 -8°C° 0 mm 3 mps 752 mmHg 78%
    02:00 -8°C° 0 mm 3 mps 752 mmHg 78%
    03:00 -8°C° 0 mm 3 mps 752 mmHg 78%
    04:00 -8°C° 0 mm 3 mps 752 mmHg 78%
    05:00 -9°C° 0 mm 3 mps 752 mmHg 78%
    06:00 -9°C° 0 mm 3 mps 753 mmHg 78%
    07:00 -9°C° 0 mm 3 mps 753 mmHg 79%
    08:00 -8°C° 0 mm 3 mps 753 mmHg 77%
    09:00 -8°C° 0 mm 3 mps 754 mmHg 75%
    10:00 -8°C° 0 mm 3 mps 754 mmHg 73%
    11:00 -7°C° 0 mm 3 mps 754 mmHg 70%
    12:00 -7°C° 0 mm 4 mps 754 mmHg 67%
    13:00 -7°C° 0 mm 4 mps 754 mmHg 65%
    14:00 -7°C° 0 mm 4 mps 754 mmHg 67%
    15:00 -6°C° 0 mm 3 mps 754 mmHg 69%
    16:00 -7°C° 0 mm 3 mps 754 mmHg 71%
    17:00 -7°C° 0 mm 3 mps 754 mmHg 73%
    18:00 -8°C° 0 mm 4 mps 754 mmHg 75%
    19:00 -9°C° 0 mm 4 mps 754 mmHg 77%
    20:00 -8°C° 0 mm 3 mps 755 mmHg 78%
    21:00 -8°C° 0 mm 3 mps 755 mmHg 79%
    22:00 -8°C° 0 mm 3 mps 755 mmHg 80%
    23:00 -9°C° 0 mm 3 mps 755 mmHg 80%

    Tomorrow, 25 January, Friday

    Time Temperature Precipitation Wind Pressure Humidity
    00:00 -8°C° 0 mm 2 mps 755 mmHg 81%
    01:00 -8°C° 0 mm 2 mps 755 mmHg 82%
    02:00 -8°C° 0 mm 2 mps 755 mmHg 82%
    03:00 -8°C° 0 mm 2 mps 754 mmHg 83%
    04:00 -8°C° 0 mm 2 mps 754 mmHg 83%
    05:00 -7°C° 0 mm 1 mps 754 mmHg 83%
    06:00 -8°C° 0 mm 1 mps 754 mmHg 84%
    07:00 -8°C° 0 mm 1 mps 754 mmHg 84%
    08:00 -7°C° 0 mm 1 mps 754 mmHg 81%
    09:00 -7°C° 0 mm 1 mps 754 mmHg 79%
    10:00 -7°C° 0 mm 1 mps 754 mmHg 77%
    11:00 -6°C° 0 mm 1 mps 754 mmHg 74%
    12:00 -4°C° 0 mm 1 mps 754 mmHg 70%
    13:00 -4°C° 0 mm 1 mps 754 mmHg 67%
    14:00 -4°C° 0 mm 1 mps 754 mmHg 69%
    15:00 -4°C° 0 mm 1 mps 754 mmHg 71%
    16:00 -4°C° 0 mm 1 mps 754 mmHg 73%
    17:00 -4°C° 0 mm 1 mps 754 mmHg 75%
    18:00 -4°C° 0 mm 1 mps 754 mmHg 78%
    19:00 -4°C° 0 mm 1 mps 754 mmHg 81%
    20:00 -4°C° 0 mm 1 mps 754 mmHg 83%
    21:00 -6°C° 0 mm 2 mps 754 mmHg 85%
    22:00 -6°C° 0 mm 2 mps 753 mmHg 87%
    23:00 -6°C° 0 mm 2 mps 753 mmHg 87%

    Day after tomorrow, 26 January, Saturday

    Time Temperature Precipitation Wind Pressure Humidity
    00:00 -6°C° 0 mm 2 mps 753 mmHg 87%
    01:00 -6°C° 0 mm 2 mps 753 mmHg 87%
    02:00 -7°C° 0 mm 3 mps 752 mmHg 85%
    03:00 -7°C° 0 mm 3 mps 751 mmHg 84%
    04:00 -7°C° 0 mm 3 mps 751 mmHg 82%
    05:00 -7°C° 0 mm 3 mps 750 mmHg 81%
    06:00 -8°C° 0 mm 4 mps 749 mmHg 79%
    07:00 -8°C° 0 mm 4 mps 749 mmHg 78%
    08:00 -8°C° 1 mm 4 mps 748 mmHg 82%
    09:00 -8°C° 1 mm 5 mps 747 mmHg 87%
    10:00 -8°C° 1 mm 5 mps 746 mmHg 92%
    11:00 -7°C° 0.9 mm 5 mps 745 mmHg 92%
    12:00 -7°C° 0.9 mm 4 mps 744 mmHg 92%
    13:00 -6°C° 0.9 mm 3 mps 743 mmHg 91%
    14:00 -5°C° 0.3 mm 3 mps 743 mmHg 92%
    15:00 -5°C° 0.3 mm 3 mps 743 mmHg 93%
    16:00 -3°C° 0.3 mm 2 mps 743 mmHg 94%
    17:00 -4°C° 0 mm 2 mps 743 mmHg 94%
    18:00 -5°C° 0 mm 2 mps 744 mmHg 94%
    19:00 -4°C° 0 mm 1 mps 744 mmHg 94%
    20:00 -4°C° 0 mm 1 mps 745 mmHg 94%
    21:00 -6°C° 0 mm 2 mps 745 mmHg 94%
    22:00 -6°C° 0 mm 2 mps 745 mmHg 93%
    23:00 -5°C° 0 mm 2 mps 745 mmHg 92%

    27 January, Sunday

    Time Temperature Precipitation Wind Pressure Humidity
    00:00 -6°C° 0 mm 3 mps 745 mmHg 91%
    01:00 -5°C° 0 mm 3 mps 745 mmHg 90%
    02:00 -5°C° 0.1 mm 3 mps 745 mmHg 90%
    03:00 -5°C° 0.1 mm 4 mps 744 mmHg 90%
    04:00 -5°C° 0.1 mm 4 mps 744 mmHg 90%
    05:00 -5°C° 0.2 mm 4 mps 744 mmHg 91%
    06:00 -5°C° 0.2 mm 4 mps 743 mmHg 91%
    07:00 -4°C° 0.2 mm 4 mps 743 mmHg 92%
    08:00 -4°C° 0.2 mm 4 mps 743 mmHg 93%
    09:00 -4°C° 0.2 mm 5 mps 742 mmHg 93%
    10:00 -2°C° 0.2 mm 5 mps 742 mmHg 93%
    11:00 -2°C° 0.2 mm 5 mps 741 mmHg 93%
    12:00 -1°C° 0.2 mm 5 mps 741 mmHg 94%
    13:00 0°C° 0.2 mm 5 mps 740 mmHg 94%
    14:00 0°C° 0.1 mm 5 mps 740 mmHg 94%
    15:00 0°C° 0.1 mm 4 mps 739 mmHg 93%
    16:00 0°C° 0.1 mm 4 mps 739 mmHg 93%
    17:00 -1°C° 0.1 mm 5 mps 738 mmHg 92%
    18:00 -1°C° 0.1 mm 5 mps 738 mmHg 92%
    19:00 -1°C° 0.1 mm 5 mps 738 mmHg 91%
    20:00 -1°C° 0 mm 5 mps 737 mmHg 91%
    21:00 -1°C° 0 mm 5 mps 737 mmHg 90%
    22:00 -1°C° 0 mm 5 mps 737 mmHg 90%
    23:00 -1°C° 0 mm 5 mps 737 mmHg 89%

    28 January, Monday

    Time Temperature Precipitation Wind Pressure Humidity
    00:00 -1°C° 0 mm 5 mps 737 mmHg 88%
    01:00 -1°C° 0 mm 5 mps 736 mmHg 88%
    02:00 -1°C° 0 mm 5 mps 736 mmHg 88%
    03:00 -1°C° 0 mm 5 mps 735 mmHg 88%
    04:00 -1°C° 0 mm 5 mps 735 mmHg 88%
    05:00 -1°C° 0 mm 5 mps 735 mmHg 88%
    06:00 -1°C° 0 mm 5 mps 735 mmHg 87%
    07:00 -1°C° 0 mm 6 mps 735 mmHg 87%
    08:00 -1°C° 0 mm 6 mps 735 mmHg 86%
    09:00 -1°C° 0 mm 6 mps 734 mmHg 86%
    10:00 -1°C° 0 mm 6 mps 734 mmHg 85%
    11:00 -1°C° 0.1 mm 6 mps 734 mmHg 86%
    12:00 -1°C° 0.1 mm 6 mps 734 mmHg 87%
    13:00 -1°C° 0.1 mm 6 mps 734 mmHg 87%
    14:00 0°C° 0.2 mm 5 mps 734 mmHg 89%
    15:00 0°C° 0.2 mm 5 mps 734 mmHg 91%
    16:00 0°C° 0.2 mm 5 mps 735 mmHg 92%
    17:00 0°C° 0.1 mm 5 mps 735 mmHg 91%
    18:00 0°C° 0.1 mm 5 mps 736 mmHg 90%
    19:00 0°C° 0.1 mm 5 mps 736 mmHg 89%
    20:00 0°C° 0 mm 5 mps 737 mmHg 88%
    21:00 -2°C° 0 mm 6 mps 737 mmHg 87%
    22:00 -2°C° 0 mm 6 mps 738 mmHg 86%
    23:00 -2°C° 0 mm 6 mps 738 mmHg 85%

    29 January, Tuesday

    Time Temperature Precipitation Wind Pressure Humidity
    00:00 -3°C° 0 mm 6 mps 738 mmHg 85%
    01:00 -3°C° 0 mm 6 mps 739 mmHg 84%
    02:00 -3°C° 0 mm 6 mps 739 mmHg 85%
    03:00 -3°C° 0 mm 6 mps 739 mmHg 85%
    04:00 -3°C° 0 mm 6 mps 739 mmHg 85%
    05:00 -3°C° 0 mm 6 mps 740 mmHg 85%
    06:00 -2°C° 0 mm 5 mps 740 mmHg 86%
    07:00 -2°C° 0 mm 5 mps 740 mmHg 86%
    08:00 -2°C° 0 mm 5 mps 741 mmHg 86%
    09:00 -2°C° 0 mm 5 mps 741 mmHg 85%
    10:00 -2°C° 0 mm 5 mps 741 mmHg 85%
    11:00 -2°C° 0 mm 5 mps 742 mmHg 85%
    12:00 -2°C° 0 mm 5 mps 742 mmHg 84%
    13:00 -2°C° 0 mm 4 mps 742 mmHg 84%
    14:00 -2°C° 0 mm 4 mps 742 mmHg 84%
    15:00 -2°C° 0 mm 4 mps 742 mmHg 84%
    16:00 -1°C° 0 mm 3 mps 742 mmHg 85%
    17:00 -1°C° 0 mm 3 mps 742 mmHg 85%
    18:00 -3°C° 0 mm 4 mps 743 mmHg 86%
    19:00 -3°C° 0 mm 4 mps 743 mmHg 86%
    20:00 -2°C° 0 mm 3 mps 743 mmHg 86%
    21:00 -2°C° 0 mm 3 mps 743 mmHg 86%
    22:00 -4°C° 0 mm 3 mps 743 mmHg 86%
    23:00 -4°C° 0 mm 3 mps 743 mmHg 87%
    Show more